Location: ?�kov
(49.4404°N, 15.1201°E)
Time: 07:47:34
(UTC+00:00)

Cosmos 1763 Rocket - Pass Details

Date: 07 June 2020
Orbit: 733 x 780 km, 74.0° (Epoch: 12 July)

Event Time Altitude Azimuth Distance (km) Brightness Sun altitude
Exits shadow 00:05:59 20° 233° (SW) 1,643 4.8 -16.2°
Maximum altitude 00:09:12 48° 300° (WNW) 957 4.1 -16.1°
Drops below altitude 10° 00:14:07 10° 15° (NNE) 2,246 7.3 -15.8°
Sets 00:16:33 0° 21° (NNE) 3,173 8.6 -15.7°
